Simultaneous Nadir Overpasses (SNOs) Predictions

Prediction of SNOs between LANDSAT-8 and NOAA-19 Satellite Orbit:

Table of predicted SNOs for the next 14.0 days since TLE Epoch: 1/26/2017
Index Date (LANDSAT-8) Time (LANDSAT-8) Lat,Lon (LANDSAT-8) SZA (LANDSAT-8 ) Date (NOAA-19) Time (NOAA-19) Lat,Lon (NOAA-19) SZA (NOAA-19 ) Distance(km) Time Diff (sec)
1 01/26/2017 14:46:26 -75.67, 145.62 85.83 01/26/2017 14:46:02 -75.64, 145.64 85.86 3.21 24
2 01/26/2017 15:35:53 75.59, -46.95 94.09 01/26/2017 15:36:58 75.58, -46.90 94.09 2.13 65
3 01/28/2017 20:20:08 75.67,-117.81 93.59 01/28/2017 20:19:53 75.64,-117.77 93.57 2.94 15
4 01/28/2017 21:09:41 -75.40, 49.06 86.71 01/28/2017 21:10:51 -75.36, 50.38 86.71 37.37 70
5 01/31/2017 01:53:52 -75.67, -21.25 87.03 01/31/2017 01:53:51 -75.67, -21.32 87.02 2.09 1
6 02/02/2017 06:38:02 -75.98, -91.38 87.32 02/02/2017 06:36:52 -76.03, -93.24 87.30 50.20 70
7 02/02/2017 07:27:34 75.65, 75.29 92.33 02/02/2017 07:27:42 75.65, 75.36 92.33 1.81 8
8 02/04/2017 12:11:49 75.72, 4.41 91.74 02/04/2017 12:10:37 75.72, 4.44 91.75 1.15 72
9 02/04/2017 13:01:18 -75.65, 171.85 88.34 02/04/2017 13:01:38 -75.64, 171.96 88.35 3.12 20
10 02/06/2017 17:45:33 -75.72, 100.96 88.95 02/06/2017 17:44:33 -75.74, 100.96 88.92 3.04 60
11 02/06/2017 18:34:59 75.68, -91.49 91.01 02/06/2017 18:35:31 75.68, -91.56 91.01 2.07 32
12 02/08/2017 23:19:14 75.74,-162.39 90.38 02/08/2017 23:18:25 75.71,-162.35 90.35 3.24 49
